Content
SEND FEEDBACK

Daily
Averages
Monthly
Summary
United States of America

HOUSTON - GALENA PARK, TEXAS


Home > North America > United States > Texas
Elevation: 20 feet     Latitude: 29 45N     Longitude: 095 17W

WEATHER
 
SELECT A DAY
Number of Records: 150,520;   Date Range: 9/11/08 - 11/21/14
 
SHARE

PRINT THIS DATA

[ ← Previous Day ]
WEATHER ALMANAC - JANUARY 31, 2013
[ Next Day → ]
[ °C ]   °F
Weather ElementAverageHighLow
Temperature56.1 °F68 °F (3:15 pm)46.4 °F (3:55 am)
Dewpoint26.3 °F33.8 °F (11:35 pm)21.2 °F (11:15 am)
Humidity33.5 %46 % (1:15 am)18 % (3:15 pm)
Barometer30.23 in30.29 in (10:15 am)30.18 in (3:55 am)
Wind Speed5.6 mph11.5 mph (10:35 am)
Wind Gust19.6 mph (1:35 pm)
Weather ElementAverage
Visibility10 mi
Wind DirectionSSW (200.7 °)

Weather ElementTotal
Precipitation---
Heating Degree Days7.8 (Base 65)
Growing Degree Days7.2 (Base 50)
Averaged from 69 records on January 31, 2013
WEATHER CONDITIONS BREAKOUT
WIND DIRECTION BREAKOUT
WEATHER BY HOUR - JANUARY 31, 2013
[ °C ]   °F
Local TimeTemperatureDewpointHumidityBarometerVisibilityWind DirectionWind SpeedGust SpeedPrecipitationEventsConditions
12:35 AM48.2 °F24.8 °F40 %30.21 in10.0 miCalmClear
12:55 AM48.2 °F26.6 °F43 %30.23 in10.0 miCalmClear
1:15 AM48.2 °F28.4 °F46 %30.20 in10.0 miCalmClear
1:35 AM48.2 °F28.4 °F46 %30.20 in10.0 miCalmClear
1:55 AM48.2 °F28.4 °F46 %30.19 in10.0 miCalmClear
2:15 AM48.2 °F28.4 °F46 %30.19 in10.0 miCalmClear
2:35 AM48.2 °F24.8 °F40 %30.19 in10.0 miWSW (240°)4.6 mphClear
2:55 AM48.2 °F26.6 °F43 %30.19 in10.0 miCalmClear
3:15 AM48.2 °F26.6 °F43 %30.20 in10.0 miSW (230°)4.6 mphClear
3:35 AM48.2 °F24.8 °F40 %30.19 in10.0 miSW (230°)3.5 mphClear
3:55 AM46.4 °F24.8 °F43 %30.18 in10.0 miWSW (240°)5.8 mphClear
4:15 AM46.4 °F24.8 °F43 %30.18 in10.0 miCalmClear
4:35 AM46.4 °F26.6 °F46 %30.18 in10.0 miWSW (250°)3.5 mphClear
4:55 AM46.4 °F24.8 °F43 %30.18 in10.0 miSW (230°)5.8 mphClear
5:15 AM46.4 °F26.6 °F46 %30.18 in10.0 miSW (230°)5.8 mphClear
5:35 AM46.4 °F24.8 °F43 %30.20 in10.0 miSW (220°)5.8 mphClear
5:55 AM46.4 °F24.8 °F43 %30.19 in10.0 miSW (230°)4.6 mphClear
6:15 AM48.2 °F24.8 °F40 %30.20 in10.0 miCalmClear
6:35 AM46.4 °F24.8 °F43 %30.21 in10.0 miWSW (240°)3.5 mphClear
6:55 AM46.4 °F24.8 °F43 %30.21 in10.0 miSW (230°)4.6 mphClear
7:15 AM48.2 °F24.8 °F40 %30.22 in10.0 miSW (230°)4.6 mphClear
7:55 AM48.2 °F24.8 °F40 %30.25 in10.0 miSW (230°)4.6 mphClear
8:15 AM50.0 °F24.8 °F37 %30.26 in10.0 miSW (230°)6.9 mphClear
8:35 AM50.0 °F24.8 °F37 %30.26 in10.0 miSSW (210°)4.6 mphClear
8:55 AM51.8 °F26.6 °F38 %30.27 in10.0 miSW (230°)4.6 mphClear
9:15 AM53.6 °F28.4 °F38 %30.28 in10.0 miWSW (240°)5.8 mphClear
9:35 AM55.4 °F28.4 °F36 %30.28 in10.0 miWSW (240°)5.8 mphClear
9:55 AM55.4 °F28.4 °F36 %30.28 in10.0 miSW (230°)8.1 mph16.1 mphClear
10:15 AM57.2 °F28.4 °F33 %30.29 in10.0 miSouth (190°)4.6 mphClear
10:35 AM59.0 °F24.8 °F27 %30.29 in10.0 miWSW (240°)11.5 mphClear
10:55 AM60.8 °F23.0 °F23 %30.28 in10.0 miWNW (290°)6.9 mphClear
11:15 AM62.6 °F21.2 °F20 %30.28 in10.0 miWest (270°)4.6 mphClear
11:35 AM62.6 °F23.0 °F22 %30.28 in10.0 miWSW (240°)6.9 mphClear
11:55 AM62.6 °F21.2 °F20 %30.28 in10.0 miWSW (240°)9.2 mphClear
12:15 PM64.4 °F24.8 °F22 %30.27 in10.0 miWSW (240°)5.8 mphClear
12:35 PM64.4 °F21.2 °F19 %30.26 in10.0 miWSW (250°)10.4 mph16.1 mphClear
12:55 PM64.4 °F23.0 °F21 %30.25 in10.0 miWNW (290°)6.9 mphClear
1:15 PM66.2 °F23.0 °F19 %30.23 in10.0 miSW (230°)9.2 mphClear
1:35 PM66.2 °F23.0 °F19 %30.22 in10.0 miWSW (250°)3.5 mph19.6 mphClear
1:55 PM66.2 °F23.0 °F19 %30.22 in10.0 miWSW (240°)9.2 mphClear
2:15 PM66.2 °F23.0 °F19 %30.21 in10.0 miSW (230°)5.8 mph18.4 mphClear
2:35 PM66.2 °F23.0 °F19 %30.20 in10.0 miWSW (240°)9.2 mph16.1 mphClear
2:55 PM66.2 °F23.0 °F19 %30.20 in10.0 miSW (220°)8.1 mph18.4 mphClear
3:15 PM68.0 °F23.0 °F18 %30.20 in10.0 miWSW (240°)4.6 mph17.3 mphClear
3:35 PM68.0 °F23.0 °F18 %30.19 in10.0 miWNW (290°)4.6 mph16.1 mphClear
3:55 PM68.0 °F23.0 °F18 %30.19 in10.0 miWSW (240°)10.4 mph16.1 mphClear
4:15 PM68.0 °F23.0 °F18 %30.19 in10.0 miWSW (250°)5.8 mphClear
4:35 PM66.2 °F23.0 °F19 %30.19 in10.0 miSW (230°)4.6 mphClear
4:55 PM66.2 °F23.0 °F19 %30.20 in10.0 miCalmClear
5:15 PM66.2 °F23.0 °F19 %30.19 in10.0 miWSW (250°)6.9 mphClear
5:35 PM62.6 °F26.6 °F26 %30.19 in10.0 miWSW (240°)6.9 mphClear
5:55 PM62.6 °F28.4 °F27 %30.19 in10.0 miSSW (210°)4.6 mphClear
6:15 PM59.0 °F26.6 °F29 %30.20 in10.0 miSW (220°)10.4 mph18.4 mphClear
6:35 PM59.0 °F24.8 °F27 %30.20 in10.0 miSW (230°)6.9 mphClear
6:55 PM59.0 °F28.4 °F31 %30.20 in10.0 miSouth (190°)6.9 mphClear
7:15 PM57.2 °F28.4 °F33 %30.21 in10.0 miSW (220°)6.9 mphClear
7:35 PM57.2 °F28.4 °F33 %30.23 in10.0 miSW (220°)5.8 mph17.3 mphClear
7:55 PM55.4 °F30.2 °F38 %30.24 in10.0 miSW (230°)9.2 mph18.4 mphClear
8:15 PM55.4 °F30.2 °F38 %30.26 in10.0 miSW (230°)4.6 mphClear
8:35 PM55.4 °F32.0 °F41 %30.26 in10.0 miSW (220°)11.5 mph16.1 mphClear
8:55 PM55.4 °F32.0 °F41 %30.27 in10.0 miSW (220°)6.9 mphClear
9:15 PM55.4 °F32.0 °F41 %30.27 in10.0 miWSW (250°)8.1 mph16.1 mphClear
9:35 PM55.4 °F32.0 °F41 %30.27 in10.0 miSW (230°)8.1 mphClear
9:55 PM55.4 °F32.0 °F41 %30.28 in10.0 miSW (230°)9.2 mphClear
10:15 PM55.4 °F32.0 °F41 %30.27 in10.0 miSW (220°)10.4 mph17.3 mphClear
10:35 PM55.4 °F32.0 °F41 %30.28 in10.0 miSW (230°)9.2 mph18.4 mphClear
10:55 PM55.4 °F32.0 °F41 %30.28 in10.0 miSW (230°)5.8 mphClear
11:15 PM55.4 °F32.0 °F41 %30.28 in10.0 miSW (230°)3.5 mphClear
11:35 PM55.4 °F33.8 °F44 %30.28 in10.0 miSW (230°)6.9 mphClear
Hourly data recorded from KMCJ, located miles away from Houston - Galena Park, Texas







STORIES FROM OUR PARTNERS